カタログに戻る

STARLINK-1347

運用中通信VLEO
NORAD 45586·PAYLOAD·🇺🇸 United States

打ち上げ Apr 22, 2020 から Cape Canaveral Space Force Station

Loading…

次のパス (今後24時間)

TLE

最新Source: CelesTrak SupGP

元期: Sep 14, 2026, 13:32 UTC

1 45586C 20025BH  26257.56437500  .00117170  00000+0  56384-3 0  2571
2 45586  53.0326 177.0434 0005279 103.2677 228.8492 15.81854870    17

AllMySatでSTARLINK-1347をリアルタイム追跡

Download on the App Store